| time (UTC) | temp F | wind direction | speed MPH | gust MPH | rain 1hr in | rain 24hr in | rain mn in | humidity % | barometer mb |
| 20260901223051 | 67 | 144 | 1.0 | 5.0 | 0.00 | 0.00 | 0.00 | 75 | 1018.8 |
| 20260901221615 | 68 | 167 | 2.0 | 7.0 | 0.00 | 0.00 | 0.00 | 73 | 1018.8 |
| 20260901220120 | 68 | 157 | 3.0 | 7.0 | 0.00 | 0.00 | 0.00 | 72 | 1018.7 |
| 20260901214553 | 68 | 177 | 2.0 | 7.0 | 0.00 | 0.00 | 0.00 | 74 | 1018.8 |
| 20260901213115 | 69 | 160 | 1.0 | 7.0 | 0.00 | 0.00 | 0.00 | 73 | 1018.7 |
| 20260901211552 | 70 | 209 | 2.0 | 6.0 | 0.00 | 0.00 | 0.00 | 69 | 1018.4 |
| 20260901210059 | 70 | 115 | 2.0 | 6.0 | 0.00 | 0.00 | 0.00 | 69 | 1018.4 |
| 20260901204558 | 69 | 161 | 1.0 | 6.0 | 0.00 | 0.00 | 0.00 | 71 | 1018.4 |
| 20260901203100 | 68 | 138 | 2.0 | 8.0 | 0.00 | 0.00 | 0.00 | 71 | 1018.1 |
| 20260901201600 | 69 | 141 | 3.0 | 9.0 | 0.00 | 0.00 | 0.00 | 69 | 1018.2 |
| 20260901200057 | 70 | 180 | 2.0 | 8.0 | 0.00 | 0.00 | 0.00 | 67 | 1018.3 |
| 20260901194556 | 70 | 0 | 2.0 | 8.0 | 0.00 | 0.00 | 0.00 | 66 | 1018.2 |
| 20260901193100 | 71 | 128 | 3.0 | 8.0 | 0.00 | 0.00 | 0.00 | 64 | 1018.3 |
| 20260901191614 | 71 | 160 | 2.0 | 6.0 | 0.00 | 0.00 | 0.00 | 60 | 1018.3 |
| 20260901190059 | 71 | 115 | 3.0 | 9.0 | 0.00 | 0.00 | 0.00 | 58 | 1018.3 |
| 20260901184557 | 72 | 171 | 3.0 | 9.0 | 0.00 | 0.00 | 0.00 | 56 | 1018.2 |
| 20260901183100 | 72 | 160 | 2.0 | 7.0 | 0.00 | 0.00 | 0.00 | 55 | 1018.2 |
| 20260901181552 | 71 | 0 | 2.0 | 6.0 | 0.00 | 0.00 | 0.00 | 56 | 1018.3 |
| 20260901174559 | 72 | 79 | 2.0 | 5.0 | 0.00 | 0.00 | 0.00 | 55 | 1018.0 |
| 20260901173054 | 71 | 123 | 1.0 | 8.0 | 0.00 | 0.00 | 0.00 | 55 | 1018.0 |
| 20260901171559 | 70 | 132 | 1.0 | 5.0 | 0.00 | 0.00 | 0.00 | 58 | 1017.9 |
| 20260901170101 | 69 | 172 | 2.0 | 7.0 | 0.00 | 0.00 | 0.00 | 56 | 1018.0 |
| 20260901164558 | 68 | 113 | 2.0 | 7.0 | 0.00 | 0.00 | 0.00 | 60 | 1018.0 |
| 20260901163056 | 68 | 103 | 2.0 | 4.0 | 0.00 | 0.00 | 0.00 | 62 | 1018.2 |
| 20260901161553 | 67 | 0 | 0.0 | 3.0 | 0.00 | 0.00 | 0.00 | 63 | 1018.2 |
| 20260901160103 | 67 | 71 | 1.0 | 5.0 | 0.00 | 0.00 | 0.00 | 65 | 1018.3 |
| 20260901154557 | 66 | 88 | 2.0 | 8.0 | 0.00 | 0.00 | 0.00 | 65 | 1018.4 |
| 20260901153107 | 66 | 360 | 1.0 | 6.0 | 0.00 | 0.00 | 0.00 | 66 | 1018.5 |
| 20260901151559 | 65 | 96 | 3.0 | 8.0 | 0.00 | 0.00 | 0.00 | 68 | 1018.3 |
| 20260901150058 | 64 | 340 | 1.0 | 8.0 | 0.00 | 0.00 | 0.00 | 69 | 1018.1 |
| 20260901144600 | 63 | 30 | 1.0 | 8.0 | 0.00 | 0.00 | 0.00 | 70 | 1018.3 |
| 20260901143055 | 63 | 61 | 1.0 | 5.0 | 0.00 | 0.00 | 0.00 | 70 | 1018.1 |
| 20260901141603 | 63 | 81 | 1.0 | 3.0 | 0.00 | 0.00 | 0.00 | 70 | 1018.2 |
| 20260901140059 | 62 | 0 | 1.0 | 4.0 | 0.00 | 0.00 | 0.00 | 70 | 1018.5 |
| 20260901134608 | 62 | 355 | 1.0 | 3.0 | 0.00 | 0.00 | 0.00 | 73 | 1018.8 |
| 20260901133051 | 61 | 26 | 0.0 | 3.0 | 0.00 | 0.00 | 0.00 | 74 | 1018.9 |
| 20260901131604 | 61 | 0 | 0.0 | 2.0 | 0.00 | 0.00 | 0.00 | 73 | 1018.6 |
| 20260901130057 | 61 | 0 | 0.0 | 3.0 | 0.00 | 0.00 | 0.00 | 74 | 1018.6 |
| 20260901124553 | 61 | 0 | 0.0 | 2.0 | 0.00 | 0.00 | 0.00 | 75 | 1018.6 |
| 20260901123107 | 61 | 0 | 0.0 | 3.0 | 0.00 | 0.00 | 0.00 | 75 | 1018.7 |
| 20260901121601 | 61 | 21 | 1.0 | 5.0 | 0.00 | 0.00 | 0.00 | 74 | 1018.7 |
| 20260901120058 | 61 | 0 | 0.0 | 3.0 | 0.00 | 0.00 | 0.00 | 73 | 1018.9 |
| 20260901114600 | 61 | 0 | 1.0 | 3.0 | 0.00 | 0.00 | 0.00 | 74 | 1018.7 |
| 20260901113053 | 61 | 0 | 0.0 | 3.0 | 0.00 | 0.00 | 0.00 | 75 | 1018.4 |
| 20260901111553 | 61 | 57 | 0.0 | 3.0 | 0.00 | 0.00 | 0.00 | 74 | 1018.1 |
| 20260901110109 | 61 | 0 | 2.0 | 5.0 | 0.00 | 0.00 | 0.00 | 73 | 1018.0 |
| 20260901104606 | 61 | 360 | 0.0 | 9.0 | 0.00 | 0.00 | 0.00 | 73 | 1017.8 |
| 20260901103058 | 61 | 0 | 0.0 | 4.0 | 0.00 | 0.00 | 0.00 | 76 | 1017.8 |
| 20260901101603 | 60 | 0 | 1.0 | 5.0 | 0.00 | 0.00 | 0.00 | 78 | 1017.4 |
| 20260901094559 | 60 | 0 | 0.0 | 5.0 | 0.00 | 0.00 | 0.00 | 87 | 1017.2 |
| 20260901093055 | 60 | 0 | 0.0 | 3.0 | 0.00 | 0.00 | 0.00 | 91 | 1017.4 |
| 20260901091550 | 60 | 0 | 0.0 | 3.0 | 0.00 | 0.00 | 0.00 | 95 | 1017.5 |
| 20260901090059 | 60 | 0 | 0.0 | 2.0 | 0.00 | 0.00 | 0.00 | 97 | 1017.5 |
| 20260901084559 | 59 | 0 | 0.0 | 2.0 | 0.00 | 0.00 | 0.00 | 98 | 1017.5 |
| 20260901083053 | 59 | 0 | 0.0 | 2.0 | 0.00 | 0.00 | 0.00 | 98 | 1017.5 |
| 20260901081550 | 59 | 0 | 0.0 | 3.0 | 0.00 | 0.00 | 0.00 | 98 | 1017.5 |
| 20260901080049 | 58 | 0 | 0.0 | 1.0 | 0.00 | 0.00 | 0.00 | 98 | 1017.8 |
| 20260901074559 | 59 | 0 | 0.0 | 2.0 | 0.00 | 0.00 | 0.00 | 97 | 1017.6 |
| 20260901073050 | 60 | 5 | 0.0 | 2.0 | 0.00 | 0.00 | 0.00 | 96 | 1017.8 |
| 20260901071557 | 60 | 0 | 0.0 | 0.0 | 0.00 | 0.00 | 0.00 | 98 | 1018.0 |
| 20260901070047 | 59 | 0 | 0.0 | 0.0 | 0.00 | 0.00 | 0.00 | 96 | 1018.3 |
| 20260901064556 | 60 | 0 | 0.0 | 0.0 | 0.00 | 0.00 | 0.00 | 97 | 1018.0 |
| 20260901063052 | 59 | 0 | 0.0 | 0.0 | 0.00 | 0.00 | 0.00 | 96 | 1018.0 |
| 20260901061601 | 59 | 0 | 0.0 | 0.0 | 0.00 | 0.00 | 0.00 | 95 | 1017.9 |
| 20260901060048 | 59 | 0 | 0.0 | 0.0 | 0.00 | 0.00 | 0.00 | 94 | 1018.0 |
| 20260901054558 | 60 | 0 | 0.0 | 0.0 | 0.00 | 0.00 | 0.00 | 94 | 1018.2 |
| 20260901053055 | 59 | 0 | 0.0 | 0.0 | 0.00 | 0.00 | 0.00 | 94 | 1018.2 |
| 20260901051549 | 60 | 0 | 0.0 | 0.0 | 0.00 | 0.00 | 0.00 | 92 | 1018.1 |
| 20260901044557 | 61 | 0 | 0.0 | 0.0 | 0.00 | 0.00 | 0.00 | 93 | 1018.0 |
| 20260901043052 | 60 | 0 | 0.0 | 0.0 | 0.00 | 0.00 | 0.00 | 93 | 1018.1 |
| 20260901041606 | 59 | 0 | 0.0 | 0.0 | 0.00 | 0.00 | 0.00 | 93 | 1018.2 |
| 20260901040110 | 58 | 0 | 0.0 | 2.0 | 0.00 | 0.00 | 0.00 | 91 | 1018.1 |
| 20260901034555 | 59 | 51 | 0.0 | 1.0 | 0.00 | 0.00 | 0.00 | 89 | 1018.2 |
| 20260901033049 | 60 | 0 | 0.0 | 2.0 | 0.00 | 0.00 | 0.00 | 89 | 1018.2 |
| 20260901031553 | 60 | 0 | 0.0 | 1.0 | 0.00 | 0.00 | 0.00 | 87 | 1018.3 |
| 20260901030051 | 60 | 0 | 0.0 | 3.0 | 0.00 | 0.00 | 0.00 | 87 | 1018.3 |
| 20260901024553 | 60 | 0 | 0.0 | 2.0 | 0.00 | 0.00 | 0.00 | 87 | 1018.2 |
| 20260901023050 | 60 | 252 | 0.0 | 2.0 | 0.00 | 0.00 | 0.00 | 87 | 1018.2 |
| 20260901021600 | 60 | 0 | 0.0 | 1.0 | 0.00 | 0.00 | 0.00 | 88 | 1018.3 |
| 20260901020059 | 59 | 0 | 0.0 | 0.0 | 0.00 | 0.00 | 0.00 | 87 | 1018.3 |
| 20260901014554 | 60 | 0 | 0.0 | 0.0 | 0.00 | 0.01 | 0.00 | 85 | 1018.4 |
| 20260901013045 | 60 | 0 | 0.0 | 0.0 | 0.00 | 0.01 | 0.00 | 83 | 1018.4 |
| 20260901011600 | 60 | 0 | 0.0 | 0.0 | 0.00 | 0.01 | 0.00 | 81 | 1018.4 |
| 20260901010056 | 61 | 0 | 0.0 | 0.0 | 0.00 | 0.01 | 0.00 | 80 | 1018.3 |
| 20260901004552 | 62 | 0 | 0.0 | 2.0 | 0.00 | 0.01 | 0.00 | 78 | 1018.3 |
| 20260901003045 | 62 | 196 | 0.0 | 4.0 | 0.00 | 0.01 | 0.00 | 76 | 1018.3 |
| 20260901001602 | 63 | 183 | 2.0 | 4.0 | 0.00 | 0.01 | 0.00 | 75 | 1018.3 |
| 20260901000104 | 63 | 0 | 0.0 | 3.0 | 0.00 | 0.01 | 0.00 | 73 | 1018.3 |
| 20260831234555 | 64 | 0 | 0.0 | 2.0 | 0.00 | 0.01 | 0.00 | 72 | 1018.2 |
| 20260831233049 | 65 | 0 | 1.0 | 5.0 | 0.00 | 0.01 | 0.00 | 70 | 1018.4 |
| 20260831231605 | 66 | 198 | 3.0 | 9.0 | 0.00 | 0.01 | 0.00 | 68 | 1018.5 |
| 20260831230055 | 67 | 184 | 3.0 | 7.0 | 0.00 | 0.01 | 0.00 | 65 | 1018.6 |
| 20260831224552 | 69 | 156 | 0.0 | 5.0 | 0.00 | 0.01 | 0.00 | 62 | 1018.6 |